This demonstration page uses our WeatherBlox Daily Observations layout. Learn more.

Left ArrowRight Arrow

40.97296, -117.73568

Hourly Observations for May 13, 2022

Temp ( °F °C ) Dew Point ( °F °C ) Humidity (%) Winds ( mph kmh ) Pressure ( in mb ) Visibility ( mi km ) Precip ( " mm )
12:56 am 00:56 Clear 48 8.9 27 -2.8 44 44 W 12 19 30.11 1020 10 16 0.00 0.00
1:56 am 01:56 Clear 47 8.3 26 -3.3 44 44 Calm 30.12 1020 10 16 0.00 0.00
2:56 am 02:56 Clear 47 8.3 27 -2.8 46 46 WNW 14 22 30.13 1020 10 16 0.00 0.00
3:56 am 03:56 Clear 41 5 27 -2.8 57 57 E 5 7 30.16 1021 10 16 0.00 0.00
4:56 am 04:56 Clear 39 3.9 27 -2.8 62 62 SW 6 9 30.16 1022 10 16 0.00 0.00
5:56 am 05:56 Sunny 41 5 27 -2.8 57 57 S 3 6 30.16 1022 10 16 0.00 0.00
6:56 am 06:56 Sunny 47 8.3 30 -1.1 52 52 Calm 30.17 1022 10 16 0.00 0.00
7:56 am 07:56 Sunny 51 10.6 30 -1.1 44 44 W 5 7 30.18 1022 10 16 0.00 0.00
8:56 am 08:56 Sunny 53 11.7 29 -1.7 40 40 WSW 10 17 30.18 1022 10 16 0.00 0.00
9:56 am 09:56 Sunny 57 13.9 29 -1.7 34 34 W 9 15 30.17 1022 10 16 0.00 0.00
10:56 am 10:56 Sunny 60 15.6 26 -3.3 27 27 W 16 26 30.16 1021 10 16 0.00 0.00
11:56 am 11:56 Sunny 61 16.1 25 -3.9 25 25 W 12 19 30.15 1021 10 16 0.00 0.00
12:56 pm 12:56 Sunny 66 18.9 23 -5 19 19 WSW 13 20 30.12 1020 10 16 0.00 0.00
1:56 pm 13:56 Mostly Sunny 68 20 20 -6.7 16 16 SW 16 26 30.10 1019 10 16 0.00 0.00
2:56 pm 14:56 Mostly Sunny 70 21.1 21 -6.1 16 16 SW 12 19 30.06 1018 10 16 0.00 0.00
3:56 pm 15:56 Mostly Cloudy 71 21.7 22 -5.6 16 16 SSW 12 19 30.05 1018 10 16 0.00 0.00
4:56 pm 16:56 Mostly Cloudy 71 21.7 21 -6.1 15 15 WSW 12 19 30.05 1018 10 16 0.00 0.00
5:56 pm 17:56 Partly Cloudy 70 21.1 20 -6.7 15 15 WSW 12 19 30.03 1017 10 16 0.00 0.00
6:56 pm 18:56 Sunny 67 19.4 24 -4.4 20 20 W 9 15 30.02 1017 10 16 0.00 0.00
7:56 pm 19:56 Sunny 62 16.7 28 -2.2 28 28 WSW 3 6 30.02 1017 10 16 0.00 0.00
8:56 pm 20:56 Clear 62 16.7 28 -2.2 28 28 S 5 7 30.02 1017 10 16 0.00 0.00
9:56 pm 21:56 Clear 53 11.7 29 -1.7 40 40 SSE 7 11 30.05 1018 10 16 0.00 0.00
10:56 pm 22:56 Clear 55 12.8 28 -2.2 35 35 SSE 12 19 30.05 1018 10 16 0.00 0.00
11:56 pm 23:56 Clear 54 12.2 28 -2.2 37 37 S 5 7 30.06 1018 10 16 0.00 0.00

Powered by AerisWeather